Location: *
(48.8667°N, 2.3331°E)
Time: 08:04:36
(UTC+00:00)

Cosmos 1943 - Pass Details

Date: 09 April 2020
Orbit: 832 x 851 km, 71.0° (Epoch: 02 June)

Event Time Altitude Azimuth Distance (km) Brightness Sun altitude
Rises 19:08:05 0° 212° (SSW) 3,384 6.5 -6.2°
Reaches altitude 10° 19:10:31 10° 214° (SSW) 2,456 5.8 -6.6°
Maximum altitude 19:16:09 75° 299° (WNW) 879 3.5 -7.4°
Drops below altitude 10° 19:21:52 10° 26° (NNE) 2,483 5.6 -8.3°
Sets 19:24:21 0° 28° (NNE) 3,425 6.3 -8.7°
